Location: Leedale
(52.5833°N, 114.4833°W)
Time: 07:33:11
(UTC+00:00)

Envisat - Pass Details

Date: 08 August 2024
Orbit: 762 x 764 km, 98.3° (Epoch: 08 September)

Event Time Altitude Azimuth Distance (km) Brightness Sun altitude
Rises 09:43:28 0° 24° (NNE) 3,241 8.0 -16.7°
Reaches altitude 10° 09:46:22 10° 41° (NE) 2,309 6.8 -16.5°
Maximum altitude 09:50:08 21° 89° (E) 1,691 5.2 -16.2°
Drops below altitude 10° 09:53:52 10° 137° (SE) 2,295 5.3 -15.9°
Enters shadow 09:56:23 - 152° (SSE) 3,093 5.9 -15.7°
